Skip Page Navigation
NASA JPL Caltech
NASA Logo - Jet Propulsion Laboratory + View the NASA Portal
+ Center for Near-Earth Object Studies
JPL Home Earth Solar System Stars & Galaxies Technology
JPL Solar System Dynamics
BODIES ORBITS EPHEMERIDES TOOLS PHYSICAL DATA DISCOVERY FAQ SITE MAP
IMPORTANT: The SSD Announcement email list is now available. Major changes are coming in the near future, including possible hostname and/or URL changes. To be notified of such changes, subscribe to this email list.

Please visit this page for more details.


JPL Small-Body Database Browser
Search: [ help ]  
215928 (2005 JX151)
Classification: Main-belt Asteroid          SPK-ID: 2215928
Ephemeris | Orbit Diagram | Orbital Elements | Mission Design | Physical Parameters | Discovery Circumstances | Close-Approach Data ]

[ show orbit diagram ]
Orbital Elements at Epoch 2458600.5 (2019-Apr-27.0) TDB
Reference: JPL 11 (heliocentric ecliptic J2000)
 Element Value Uncertainty (1-sigma)   Units 
e .1269974675348721 4.5312e-08  
a 2.404135278460583 2.2098e-08 au
q 2.098816186484844 1.0401e-07 au
i 2.672695858441656 6.2232e-06 deg
node 109.0926492095807 0.00013033 deg
peri 144.3983199548625 0.00013405 deg
M 229.8935065254859 3.3224e-05 deg
tp 2459092.577208618042
(2020-Aug-31.07720862)
0.00012923 TDB
period 1361.559983454598
3.73
1.8772e-05
5.139e-08
d
yr
n .2644026002340311 3.6454e-09 deg/d
Q 2.709454370436322 2.4904e-08 au
  Orbit Determination Parameters
   # obs. used (total)      149  
   data-arc span      4585 days (12.55 yr)  
   first obs. used      2005-03-11  
   last obs. used      2017-09-29  
   planetary ephem.      DE431  
   SB-pert. ephem.      SB431-N16  
   condition code      0  
   norm. resid. RMS      .55492  
   source      ORB  
   producer      Otto Matic  
   solution date      2017-Oct-09 18:21:19  

Additional Information
 Earth MOID = 1.08458 au 
 Jupiter MOID = 2.32448 au 
 T_jup = 3.511 
[ show covariance matrix ]

Ephemeris | Orbit Diagram | Orbital Elements | Mission Design | Physical Parameters | Discovery Circumstances | Close-Approach Data ]

Physical Parameter Table
Parameter Symbol Value Units Sigma Reference Notes
absolute magnitude H 17.3   n/a MPO418157  

215928 (2005 JX151)          Discovered 2005-May-04 by NEAT at Palomar
Reference: 20090607/Numbers.arcLast Updated: 2009-06-08

[ show close-approach data ]
Alternate Designations
 2005 JX151 = 2005 GP10 
Ephemeris | Orbit Diagram | Orbital Elements | Mission Design | Physical Parameters | Discovery Circumstances | Close-Approach Data ]
ABOUT SSD CREDITS/AWARDS PRIVACY/COPYRIGHT GLOSSARY LINKS
FirstGov
(server date/time)  
NASA Home Page
Site Manager:   Ryan S. Park
Webmaster  Alan B. Chamberlin